Location: Unspecified
(0.0000°N, 0.0000°E)
Time: 16:24:13
(UTC+00:00)

Tiros 1 despin weight - Pass Details

Date: 24 November 2019
Orbit: 594 x 642 km, 48.2° (Epoch: 12 December)

Event Time Altitude Azimuth Distance (km) Brightness Sun altitude
Rises 20:49:40 0° 295° (WNW) 2,885 - -42.1°
Reaches altitude 10° 20:52:26 10° 279° (W) 1,991 - -42.7°
Maximum altitude 20:55:52 21° 230° (SW) 1,422 - -43.4°
Drops below altitude 10° 20:59:22 10° 181° (S) 2,016 - -44.2°
Sets 21:02:12 0° 165° (SSE) 2,932 - -44.8°
